Location: Newark
(34.3481°N, 134.0494°E)
Time: 06:48:13
(UTC+00:00)

Vanguard 3 - Pass Details

Date: 30 January 2020
Orbit: 508 x 3263 km, 33.3° (Epoch: 17 February)

Event Time Altitude Azimuth Distance (km) Brightness Sun altitude
Rises 12:27:05 0° 285° (WNW) 7,215 12.7 -48.7°
Reaches altitude 10° 12:32:16 10° 282° (WNW) 6,082 12.1 -49.8°
Enters shadow 12:47:35 53° 239° (WSW) 2,979 9.8 -52.8°
Maximum altitude 12:49:55 57° 211° (SSW) 2,748 - -53.3°
Drops below altitude 10° 13:00:56 10° 136° (SE) 3,952 - -55.4°
Sets 13:03:34 0° 132° (SE) 4,631 - -55.9°
